Location: La Tine
(46.4708°N, 7.0525°E)
Time: 11:13:00
(UTC+00:00)

Cosmos 1782 Rocket - Pass Details

Date: 18 September 2020
Orbit: 607 x 632 km, 82.5° (Epoch: 24 October)

Event Time Altitude Azimuth Distance (km) Brightness Sun altitude
Rises 18:41:59 0° 194° (SSW) 2,880 7.0 -11.9°
Reaches altitude 10° 18:44:12 10° 197° (SSW) 1,983 6.2 -12.3°
Maximum altitude 18:48:34 67° 280° (W) 680 4.0 -13.0°
Drops below altitude 10° 18:53:01 10° 4° (N) 2,015 6.4 -13.7°
Sets 18:55:18 0° 7° (N) 2,930 7.2 -14.1°
